Regional Weather Roundup
Issued by NWS

Home | Current Version | Previous Version | Text Only | Print | Product List | Glossary Off
Versions: 1 2 3 4 5 6 7 8 9 10 11 12 13 14 15 16 17 18 19 20 21 22 23 24 25 26 27 28 29 30 31 32 33 34 35 36 37 38 39 40 41 42 43 44 45 46 47 48 49 50

000
ASUS43 KLOT 270504
RWRIL

ILLINOIS REGIONAL WEATHER ROUNDUP
NATIONAL WEATHER SERVICE CHICAGO/ROMEOVILLE IL
1200 AM CDT SAT AUG 27 2016

NOTE: "FAIR" INDICATES FEW OR NO CLOUDS BELOW 12,000 FEET WITH NO
SIGNIFICANT WEATHER AND/OR OBSTRUCTIONS TO VISIBILITY.

* THESE STATIONS ARE NOT UNDER NWS QUALITY CONTROL. THEY ALSO MAY NOT
  REPORT WEATHER SUCH AS PRECIPITATION OR FOG.

ILZ001-002-007-009-015-016-024-270600-
NORTHWEST ILLINOIS

CITY           SKY/WX    TMP DP  RH WIND       PRES   REMARKS
MOLINE         HVY RAIN  69  66  90 E9        30.08R FOG
STERLING*      LGT RAIN  68  67  96 E8        30.09S
SAVANNA*       CLOUDY    70  63  79 E7        30.09S
$$

ILZ003-004-008-010-011-017-018-270600-
NORTH CENTRAL ILLINOIS

CITY           SKY/WX    TMP DP  RH WIND       PRES   REMARKS
ROCKFORD       CLOUDY    68  61  78 E8        30.11F
FREEPORT*      CLOUDY    65  63  93 E6        30.12S
ROCHELLE*      MOCLDY    67  63  87 E10       30.11S
$$

ILZ005-006-012>014-019>023-270600-
NORTHEAST ILLINOIS

CITY           SKY/WX    TMP DP  RH WIND       PRES   REMARKS
CHICAGO-OHARE  LGT RAIN  69  65  86 NE7       30.12S
CHICAGO-MIDWAY LGT RAIN  72  66  81 NE9       30.12S
AURORA         CLOUDY    68  65  90 NE6       30.12R
LANSING*       DRIZZLE   72  68  87 NE3       30.11S
JOLIET*        CLOUDY    71  68  92 NE3       30.11F
WAUKEGAN       CLOUDY    68  62  81 NE6       30.12S
DUPAGE AIRPORT LGT RAIN  67  62  84 NE10      30.11F
KANKAKEE*      DRIZZLE   69  68  94 NE3       30.11S
WHEELING       LGT RAIN  68  64  87 NE5       30.14R FOG
MORRIS*        CLOUDY    68  67  95 CALM      30.09F
ROMEOVILLE*    CLOUDY    69  68  96 NE9       30.12S
NORTHERLY ISL    N/A     71  64  78 NE10        N/A
$$

LMZ740>746-270600-
SOUTHERN LAKE MICHIGAN

STATION/POSITION SKY/WX   TEMP    WIND        PRES    VSBY  WAVE
                          AIR SEA DIR/SP/G                  HT/PER
                          (F)     (DEG/KT/KT) (MB)    (MI)  (FT/S)
SOUTHERN BUOY              72 75   60/ 12/ 12 1020.0          1
WILMETTE HARBOR            72 70   80/ 10/ 14   N/A           2/ 3
HARRISON CRIB              73      60/ 14/ 15   N/A
BURNHAM HARBOR             71      50/  9/ 12   N/A
CALUMET HARBOR             71      50/  7/ 10 1019.6R
BURNS HARBOR               73      70/ 12/ 16 1020.3S
MICHIGAN CITY              71      40/ 13/ 14   N/A
MICHIGAN CITY 6N           73 75   70/ 12/ 16   N/A           3/ 3
ST. JOSEPH                 71 75   50/ 12/ 14 1020.3R         2/ 3
$$

ILZ025>027-034>036-040-047-049-050-058-095>099-270600-
WEST-CENTRAL ILLINOIS

CITY           SKY/WX    TMP DP  RH WIND       PRES   REMARKS
QUINCY         TSTM      71  71 100 W13       30.09R FOG
GALESBURG*     TSTM      69  69  98 E5        30.08F
MACOMB*        TSTM      71  70  97 NE6       30.08S
JACKSONVILLE*  CLOUDY    72  70  94 CALM      30.06R
PITTSFIELD*    MOCLDY    73  72  96 E3        30.05S
$$

ILZ028>032-037-038-041>044-048-051>054-059>061-270600-
CENTRAL ILLINOIS

CITY           SKY/WX    TMP DP  RH WIND       PRES   REMARKS
PONTIAC        CLOUDY    72  71  98 NE5       30.10S
BLOOMINGTON    CLOUDY    70  69  97 NE5       30.10R
DECATUR        PTCLDY    71  69  93 CALM      30.07F
PEORIA         LGT RAIN  72  72 100 E6        30.08R
LACON*         LGT RAIN  71  69  94 E8        30.07S
LINCOLN*       MOCLDY    73  71  93 SE3       30.07R
SPRINGFIELD    CLOUDY    74  70  87 SE7       30.07R
TAYLORVILLE    CLOUDY    70  70  99 SE5       30.07S
$$

ILZ033-039-045-046-055>057-062-063-270600-
EAST-CENTRAL ILLINOIS

CITY           SKY/WX    TMP DP  RH WIND       PRES   REMARKS
CHAMPAIGN      CLOUDY    71  69  93 E5        30.07F FOG
RANTOUL*       PTCLDY    73  72  98 CALM      30.08S
MATTOON        MOCLDY    71  69  93 SE3       30.06F
PARIS*         CLOUDY    71  71 100 CALM      30.08F
$$

ILZ079-100>102-270600-
SOUTHWEST ILLINOIS

CITY           SKY/WX    TMP DP  RH WIND       PRES   REMARKS
ALTON          CLOUDY    71  69  96 SE3       30.04F
BELLEVILLE     CLOUDY    75  74  98 SE2       30.04R
CAHOKIA*       CLOUDY    77  72  84 S3        30.03F
SPARTA*        CLOUDY    74  70  89 SE6       30.07R
$$

ILZ064>066-069>071-074>076-080>082-084>086-088>090-092>094-270600-
SOUTH-CENTRAL ILLINOIS

CITY           SKY/WX    TMP DP  RH WIND       PRES   REMARKS
CARBONDALE     CLOUDY    73  70  90 SE6       30.08R
EFFINGHAM*     CLOUDY    72  72 100 CALM      30.07F
MARION         DRIZZLE   75  70  83 S13       30.10S
MT. VERNON     MOCLDY    75  70  83 S15       30.11R
CENTRALIA*     CLOUDY    75  74  96 SE3       30.07R
SALEM*         CLOUDY    75  73  91 CALM      30.08R
METROPOLIS*    LGT RAIN  72  71  97 CALM      30.10F
$$

ILZ067-068-072-073-078-083-087-091-270600-
SOUTHEAST ILLINOIS

CITY           SKY/WX    TMP DP  RH WIND       PRES   REMARKS
LAWRENCEVILLE  CLOUDY    75  73  93 E3        30.07F
FLORA*         CLOUDY    75  74  97 SW6       30.07R FOG
FAIRFIELD*     CLOUDY    74  73  96 S7        30.09R
HARRISBURG*    TSTM      72  71  95 SE9       30.11F
ROBINSON*      CLOUDY    71  71 100 CALM      30.08S
CARMI*         CLOUDY    75  71  87 S17G26    30.10R
$$

ABBREVIATIONS USED IN REMARKS
   TC - TEMPERATURE IN CELSIUS
  WCI - WIND CHILL INDEX
   HX - HEAT INDEX
  VSB - VISIBILITY
$$





USA.gov is the U.S. government's official web portal to all federal, state and local government web resources and services.